Sitka Rocky Gutierrez current weather conditions

sailwx.info

Wind from 310 at 3 knots

Air temperature 5.0° C
Visibility: greater than 8.7 NM
Dewpoint 3.0° C

Last reported at 2014-Dec-21 18:53 UTC.
Time now 2014-Dec-21 20:53 UTC

Location: N 57°03' W 135°22'.
View on Google Maps.

See reports from other nearby stations

  
Tides and Currents Weather Stations Pressure Air Temp Water Temp Dewpoint Dewpoint Depression Visibility Wind Speed Wind Dir Waves Ship Positions
date/time (UTC)wind fromknots sea level pressurealtimeterstation pressurevisibilityair tempwater tempwave heightnotes
2014-Dec-21 18:53 310 3 8.7 5.0
2014-Dec-21 17:53 360 4 8.7 5.0
2014-Dec-21 16:53 8.7 4.0
2014-Dec-21 15:53 090 6 8.7 4.0
2014-Dec-21 14:53 100 5 8.7 4.0
2014-Dec-21 13:53 110 5 8.7 4.0
2014-Dec-21 12:53 110 5 8.7 4.0
2014-Dec-21 11:53 090 4 8.7 4.0 Light rain.
2014-Dec-21 10:53 090 6 8.7 5.0 Light rain.
2014-Dec-21 10:28 110 7 8.7 5.0 Light rain.
2014-Dec-21 09:53 080 5 8.7 5.0 Light rain.
2014-Dec-21 09:40 100 6 7.8 5.0 Light rain.
2014-Dec-21 09:15 110 5 8.7 5.0 Light rain.
2014-Dec-21 08:53 110 7 8.7 5.0 Light rain.
2014-Dec-21 08:18 080 6 8.7 5.0
2014-Dec-21 07:53 100 5 8.7 6.0 Light rain.
2014-Dec-21 07:35 150 6 8.7 6.0 Light rain.
2014-Dec-21 06:53 110 3 7.0 6.0 Light rain.
2014-Dec-21 06:42 130 4 6.1 6.0 Light rain.
2014-Dec-21 05:53 100 7 8.7 6.0 Light rain.
2014-Dec-21 05:39 100 7 8.7 6.0 Light rain.
2014-Dec-21 05:16 100 7 8.7 6.0 Light rain.
2014-Dec-21 04:53 100 6 8.7 6.0 Light rain.
2014-Dec-21 03:53 170 9 8.7 6.0 Light rain.
2014-Dec-21 02:53 150 11 8.7 7.0 Light rain.
2014-Dec-21 01:53 150 10 8.7 8.0
2014-Dec-21 00:53 120 11 8.7 8.0
2014-Dec-20 23:53 110 16 8.7 8.0
2014-Dec-20 22:53 110 14 8.7 8.0
2014-Dec-20 21:53 110 16 8.7 8.0
2014-Dec-20 20:53 120 15 8.7 8.0
2014-Dec-20 19:53 120 15 gusting 20 8.7 8.0
2014-Dec-20 18:53 110 13 gusting 24 8.7 8.0
2014-Dec-20 17:53 110 16 gusting 20 8.7 8.0
2014-Dec-20 16:53 110 13 8.7 8.0
2014-Dec-20 15:53 120 16 8.7 8.0
2014-Dec-20 14:53 110 15 gusting 26 8.7 8.0
2014-Dec-20 13:53 120 18 8.7 8.0
2014-Dec-20 12:53 120 18 gusting 23 8.7 8.0
2014-Dec-20 11:53 120 16 gusting 22 8.7 8.0
2014-Dec-20 10:53 120 14 gusting 20 8.7 8.0
2014-Dec-20 09:53 110 17 gusting 22 8.7 8.0
2014-Dec-20 08:53 110 11 8.7 8.0
2014-Dec-20 07:53 120 14 8.7 7.0
2014-Dec-20 06:53 120 15 8.7 8.0
2014-Dec-20 05:53 120 13 8.7 7.0
2014-Dec-20 04:53 140 13 8.7 7.0 Light rain.
2014-Dec-20 03:53 120 13 gusting 20 8.7 6.0
2014-Dec-20 02:53 120 16 8.7 7.0
2014-Dec-20 01:53 120 17 gusting 22 8.7 7.0
2014-Dec-20 00:53 120 14 8.7 7.0
2014-Dec-19 23:53 120 14 8.7 7.0
2014-Dec-19 22:53 120 16 8.7 7.0
2014-Dec-19 21:53 120 15 gusting 23 8.7 7.0
2014-Dec-19 20:53 120 17 gusting 27 8.7 7.0